Location: A�t �Alizem
(31.2076°N, 8.7872°W)
Time: 06:42:30
(UTC+00:00)

CZ-2D R/B - Pass Details

Date: 27 November 2020
Orbit: 520 x 538 km, 97.4° (Epoch: 25 January)

Event Time Altitude Azimuth Distance (km) Brightness Sun altitude
Rises 18:28:29 0° 145° (SE) 2,635 6.6 -12.0°
Reaches altitude 10° 18:30:45 10° 134° (SE) 1,754 5.6 -12.4°
Maximum altitude 18:34:03 29° 74° (ENE) 986 4.0 -13.1°
Drops below altitude 10° 18:37:22 10° 13° (NNE) 1,772 5.6 -13.8°
Sets 18:39:40 0° 2° (N) 2,668 6.6 -14.2°
